Location: Gand�
(15.0971°N, 12.6564°W)
Time: 15:24:13
(UTC+00:00)

Cosmos 1943 - Pass Details

Date: 07 August 2020
Orbit: 834 x 849 km, 71.0° (Epoch: 19 September)

Event Time Altitude Azimuth Distance (km) Brightness Sun altitude
Rises 04:56:02 0° 355° (N) 3,374 6.6 -23.1°
Reaches altitude 10° 04:58:37 10° 2° (N) 2,441 5.9 -22.5°
Maximum altitude 05:03:51 41° 72° (ENE) 1,202 4.5 -21.3°
Drops below altitude 10° 05:09:06 10° 141° (SE) 2,447 5.8 -20.2°
Sets 05:11:40 0° 148° (SSE) 3,383 6.4 -19.6°
